RZN1372 PHNL-DFFD

Flight info

Callsign RZN1372
Flight time N/A
Altitude 31000
Route MKK5 APACK R463 ADOPE/N0493F330 R463 ALLBE DCT OAK/N0485F350 J84 MVA J56 TCH J154 OCS J94 ONL J148 GOOLD/N0489F370 J148 MCW J16 BAE J36 FNT Q818 DERLO Q913 TOPPS/M084F370 N49E JAROM/M084F390 DCT 42N048W 40N042W 38N036W 35N030W 32N025W DCT NEXUX/N0476F410 DCT ROSTA Y611 CABOJ N728 MIYEC UT365 SOLMA UR866 NUSUR BIKOR1L
Aircraft B772/H-SDE2E3FGHIJ5LORVWXY/LB1D1

Departure

Time 2026-05-06 20:46
Airport Daniel K. Inouye International Airport (PHNL)

Arrival

Time N/A
Airport Ouagadougou Thomas Sankara International Airport (DFFD)
Time Latitude Longitude Altitude Speed Heading
2026-05-06 20:28 21.32929 -157.94086 35 ft 0 kts 90°
2026-05-06 20:39 21.32929 -157.94081 44 ft 1 kts 90°
2026-05-06 20:39 21.32929 -157.94069 44 ft 2 kts 90°
2026-05-06 20:39 21.32928 -157.94051 44 ft 2 kts 91°
2026-05-06 20:39 21.32925 -157.94034 44 ft 1 kts 133°
2026-05-06 20:40 21.32906 -157.94026 44 ft 5 kts 176°
2026-05-06 20:40 21.32839 -157.94022 43 ft 12 kts 165°
2026-05-06 20:40 21.32752 -157.94023 41 ft 12 kts 208°
2026-05-06 20:40 21.32735 -157.94113 40 ft 12 kts 279°
2026-05-06 20:41 21.32744 -157.94199 40 ft 12 kts 272°
2026-05-06 20:41 21.32736 -157.94287 40 ft 11 kts 244°
2026-05-06 20:41 21.32672 -157.94321 40 ft 10 kts 185°
2026-05-06 20:41 21.32601 -157.94324 40 ft 8 kts 180°
2026-05-06 20:42 21.32571 -157.94324 40 ft 4 kts 180°
2026-05-06 20:42 21.32539 -157.94322 40 ft 4 kts 156°
2026-05-06 20:42 21.32522 -157.94299 40 ft 4 kts 103°
2026-05-06 20:42 21.32522 -157.94292 40 ft 0 kts 86°
2026-05-06 20:44 21.32522 -157.94290 40 ft 2 kts 86°
2026-05-06 20:44 21.32526 -157.94070 40 ft 59 kts 89°
2026-05-06 20:45 21.32526 -157.93404 37 ft 116 kts 90°
2026-05-06 20:45 21.32528 -157.92378 43 ft 163 kts 90°
2026-05-06 20:45 21.32532 -157.91020 101 ft 195 kts 88°
2026-05-06 20:45 21.32463 -157.89594 592 ft 194 kts 97°
2026-05-06 20:46 21.32150 -157.88139 1035 ft 206 kts 104°
2026-05-06 20:46 21.31744 -157.86650 1533 ft 210 kts 105°
2026-05-06 20:46 21.31326 -157.85152 1900 ft 216 kts 105°
2026-05-06 20:46 21.30923 -157.83591 2300 ft 221 kts 103°
2026-05-06 20:47 21.30494 -157.81940 2548 ft 236 kts 104°
2026-05-06 20:47 21.30036 -157.80203 2787 ft 252 kts 104°
2026-05-06 20:47 21.29584 -157.78383 3169 ft 261 kts 104°
2026-05-06 20:47 21.29129 -157.76494 3726 ft 264 kts 104°
2026-05-06 20:48 21.28664 -157.74564 4258 ft 269 kts 104°
2026-05-06 20:48 21.28186 -157.72610 4791 ft 273 kts 104°
2026-05-06 20:48 21.27710 -157.70660 5367 ft 275 kts 104°
2026-05-06 20:48 21.27229 -157.68674 5889 ft 278 kts 104°
2026-05-06 20:49 21.26743 -157.66653 6356 ft 281 kts 102°
2026-05-06 20:49 21.26665 -157.64554 6756 ft 284 kts 77°
2026-05-06 20:49 21.27445 -157.62654 7134 ft 287 kts 52°
2026-05-06 20:49 21.28728 -157.60989 7643 ft 288 kts 47°
2026-05-06 20:50 21.30072 -157.59404 8133 ft 290 kts 46°
2026-05-06 20:50 21.31421 -157.57826 8592 ft 293 kts 47°
2026-05-06 20:50 21.32815 -157.56203 9062 ft 295 kts 46°
2026-05-06 20:50 21.34223 -157.54578 9519 ft 298 kts 46°
2026-05-06 20:51 21.35631 -157.52948 9962 ft 301 kts 46°
2026-05-06 20:51 21.37071 -157.51279 10326 ft 308 kts 46°
2026-05-06 20:51 21.38547 -157.49568 10449 ft 324 kts 46°
2026-05-06 20:51 21.40135 -157.47729 10573 ft 341 kts 46°
2026-05-06 20:52 21.41764 -157.45842 10708 ft 356 kts 46°
2026-05-06 20:52 21.43486 -157.43846 10852 ft 370 kts 46°
2026-05-06 20:52 21.45254 -157.41797 10996 ft 384 kts 46°
2026-05-06 20:52 21.47099 -157.39656 11270 ft 392 kts 46°
2026-05-06 20:53 21.48976 -157.37476 11691 ft 396 kts 46°
2026-05-06 20:53 21.50830 -157.35321 12116 ft 399 kts 46°
2026-05-06 20:53 21.52734 -157.33110 12524 ft 402 kts 47°
2026-05-06 20:53 21.54624 -157.30913 12926 ft 405 kts 47°
2026-05-06 20:54 21.56542 -157.28682 13341 ft 408 kts 47°
2026-05-06 20:54 21.58477 -157.26430 13755 ft 411 kts 47°
2026-05-06 20:54 21.60412 -157.24176 14157 ft 413 kts 47°
2026-05-06 20:54 21.62365 -157.21901 14560 ft 416 kts 47°
2026-05-06 20:55 21.64343 -157.19595 14978 ft 418 kts 47°
2026-05-06 20:55 21.66317 -157.17293 15390 ft 420 kts 47°
2026-05-06 20:55 21.68301 -157.14980 15795 ft 422 kts 47°
2026-05-06 20:55 21.70298 -157.12648 16196 ft 424 kts 47°
2026-05-06 20:56 21.72298 -157.10312 16591 ft 426 kts 47°
2026-05-06 20:56 21.74304 -157.07965 16984 ft 428 kts 47°
2026-05-06 20:56 21.76312 -157.05621 17376 ft 430 kts 47°
2026-05-06 20:56 21.78356 -157.03232 17778 ft 433 kts 47°
2026-05-06 20:57 21.80389 -157.00851 18139 ft 436 kts 46°
2026-05-06 20:57 21.82597 -156.98621 18489 ft 438 kts 37°
2026-05-06 20:57 21.85139 -156.96814 18846 ft 439 kts 26°
2026-05-06 20:57 21.87925 -156.95505 19187 ft 438 kts 16°
2026-05-06 20:58 21.90875 -156.94585 19562 ft 438 kts 13°
2026-05-06 20:58 21.93819 -156.93735 19935 ft 439 kts 13°
2026-05-06 20:58 21.96808 -156.92874 20285 ft 441 kts 13°
2026-05-06 20:58 21.99757 -156.92024 20621 ft 443 kts 13°
2026-05-06 20:59 22.02740 -156.91165 20971 ft 445 kts 13°
2026-05-06 20:59 22.05770 -156.90289 21325 ft 446 kts 13°
2026-05-06 20:59 22.08756 -156.89426 21655 ft 447 kts 13°
2026-05-06 20:59 22.11782 -156.88551 21981 ft 449 kts 13°
2026-05-06 21:00 22.14782 -156.87683 22301 ft 450 kts 13°
2026-05-06 21:00 22.17811 -156.86806 22618 ft 452 kts 13°
2026-05-06 21:00 22.20862 -156.85921 22931 ft 453 kts 13°
2026-05-06 21:00 22.23911 -156.85037 23240 ft 455 kts 13°
2026-05-06 21:01 22.26970 -156.84151 23540 ft 456 kts 13°
2026-05-06 21:01 22.30080 -156.83247 23851 ft 458 kts 13°
2026-05-06 21:01 22.33141 -156.82359 24152 ft 459 kts 13°
2026-05-06 21:01 22.36242 -156.81459 24461 ft 461 kts 13°
2026-05-06 21:02 22.39339 -156.80559 24758 ft 463 kts 13°
2026-05-06 21:02 22.42462 -156.79651 25059 ft 465 kts 13°
2026-05-06 21:02 22.45583 -156.78743 25353 ft 467 kts 13°
2026-05-06 21:02 22.48722 -156.77823 25639 ft 468 kts 13°
2026-05-06 21:03 22.51879 -156.76907 25923 ft 470 kts 13°
2026-05-06 21:03 22.55071 -156.75974 26211 ft 471 kts 13°
2026-05-06 21:03 22.58216 -156.75061 26450 ft 472 kts 13°
2026-05-06 21:03 22.61387 -156.74110 26588 ft 475 kts 13°
2026-05-06 21:04 22.64574 -156.73163 26833 ft 474 kts 13°
2026-05-06 21:04 22.67789 -156.72209 26959 ft 477 kts 13°
2026-05-06 21:04 22.71005 -156.71258 27124 ft 478 kts 12°
2026-05-06 21:04 22.74135 -156.70331 27161 ft 477 kts 13°
2026-05-06 21:05 22.77352 -156.69380 27266 ft 480 kts 13°
2026-05-06 21:05 22.80580 -156.68437 27549 ft 482 kts 13°
2026-05-06 21:05 22.83817 -156.67493 28028 ft 485 kts 13°
2026-05-06 21:05 22.87082 -156.66539 28437 ft 486 kts 13°
2026-05-06 21:06 22.90330 -156.65590 28733 ft 487 kts 13°
2026-05-06 21:06 22.93617 -156.64630 28958 ft 489 kts 13°
2026-05-06 21:06 22.96940 -156.63658 29148 ft 491 kts 13°
2026-05-06 21:06 23.00238 -156.62692 29343 ft 494 kts 13°
2026-05-06 21:07 23.03562 -156.61719 29594 ft 495 kts 13°
2026-05-06 21:07 23.06893 -156.60744 29835 ft 496 kts 13°
2026-05-06 21:07 23.10241 -156.59761 30050 ft 498 kts 13°
2026-05-06 21:07 23.13573 -156.58784 30265 ft 499 kts 13°
2026-05-06 21:08 23.16932 -156.57799 30591 ft 498 kts 13°
2026-05-06 21:08 23.20278 -156.56816 30984 ft 496 kts 13°
2026-05-06 21:08 23.23591 -156.55843 31067 ft 497 kts 13°
2026-05-06 21:09 23.30357 -156.53853 31076 ft 496 kts 12°
2026-05-06 21:09 23.37041 -156.51886 31077 ft 497 kts 13°
2026-05-06 21:10 23.43717 -156.49919 31078 ft 497 kts 12°
2026-05-06 21:10 23.50407 -156.47946 31079 ft 496 kts 13°
2026-05-06 21:11 23.57081 -156.45976 31077 ft 498 kts 13°
2026-05-06 21:11 23.63736 -156.44009 31080 ft 499 kts 12°
2026-05-06 21:12 23.70519 -156.42003 31083 ft 506 kts 12°
2026-05-06 21:12 23.77358 -156.39978 31079 ft 512 kts 12°
2026-05-06 21:13 23.84243 -156.37936 31078 ft 512 kts 12°
2026-05-06 21:13 23.91105 -156.35899 31081 ft 512 kts 12°
2026-05-06 21:14 23.97995 -156.33713 31066 ft 514 kts 19°
2026-05-06 21:14 24.04267 -156.29895 31067 ft 520 kts 36°
2026-05-06 21:15 24.09332 -156.24226 31068 ft 526 kts 51°
2026-05-06 21:15 24.13620 -156.17670 31073 ft 529 kts 52°
2026-05-06 21:16 24.17860 -156.11105 31072 ft 528 kts 53°
2026-05-06 21:16 24.22081 -156.04564 31072 ft 530 kts 53°
2026-05-06 21:17 24.26331 -155.97967 31072 ft 529 kts 53°
2026-05-06 21:17 24.30571 -155.91377 31070 ft 529 kts 53°
2026-05-06 21:18 24.34828 -155.84753 31070 ft 530 kts 52°
2026-05-06 21:18 24.39072 -155.78140 31072 ft 530 kts 53°
2026-05-06 21:19 24.43302 -155.71541 31073 ft 530 kts 52°
2026-05-06 21:19 24.47545 -155.64911 31073 ft 530 kts 52°
2026-05-06 21:20 24.51780 -155.58284 31074 ft 531 kts 53°
2026-05-06 21:20 24.56014 -155.51651 31073 ft 531 kts 53°
2026-05-06 21:21 24.60223 -155.45048 31076 ft 531 kts 53°
2026-05-06 21:21 24.64473 -155.38371 31075 ft 531 kts 53°
2026-05-06 21:22 24.68715 -155.31699 31065 ft 532 kts 53°
2026-05-06 21:22 24.72953 -155.25021 31069 ft 531 kts 53°
2026-05-06 21:23 24.77159 -155.18352 31066 ft 532 kts 53°
2026-05-06 21:23 24.81357 -155.11682 31067 ft 533 kts 53°
2026-05-06 21:24 24.85571 -155.04977 31069 ft 533 kts 53°
2026-05-06 21:24 24.89782 -154.98271 31073 ft 533 kts 53°
2026-05-06 21:25 24.93995 -154.91553 31072 ft 532 kts 53°
2026-05-06 21:25 24.98170 -154.84885 31071 ft 532 kts 53°
2026-05-06 21:26 25.02375 -154.78162 31070 ft 532 kts 53°
2026-05-06 21:26 25.06572 -154.71439 31070 ft 533 kts 53°
2026-05-06 21:27 25.10760 -154.64723 31070 ft 533 kts 53°
2026-05-06 21:27 25.14971 -154.57960 31072 ft 533 kts 53°
2026-05-06 21:28 25.19177 -154.51196 31074 ft 534 kts 53°
2026-05-06 21:28 25.23358 -154.44463 31071 ft 533 kts 53°
2026-05-06 21:29 25.27566 -154.37674 31069 ft 533 kts 53°
2026-05-06 21:29 25.31737 -154.30939 31061 ft 533 kts 53°
2026-05-06 21:30 25.35932 -154.24152 31060 ft 533 kts 53°
2026-05-06 21:30 25.40116 -154.17377 31062 ft 534 kts 53°
2026-05-06 21:31 25.44296 -154.10596 31059 ft 534 kts 54°
2026-05-06 21:31 25.48466 -154.03824 31058 ft 534 kts 53°
2026-05-06 21:32 25.52655 -153.97006 31059 ft 534 kts 53°
2026-05-06 21:32 25.58889 -153.86847 31060 ft 533 kts 53°
2026-05-06 21:33 25.63071 -153.80020 31059 ft 534 kts 53°
2026-05-06 21:33 25.67240 -153.73202 31057 ft 534 kts 54°
2026-05-06 21:34 25.71390 -153.66409 31058 ft 533 kts 53°
2026-05-06 21:34 25.75523 -153.59631 31054 ft 533 kts 53°
2026-05-06 21:35 25.79711 -153.52754 31056 ft 534 kts 53°
2026-05-06 21:35 25.83854 -153.45941 31058 ft 533 kts 53°
2026-05-06 21:36 25.87981 -153.39145 31057 ft 533 kts 53°
2026-05-06 21:36 25.92121 -153.32315 31050 ft 533 kts 54°
2026-05-06 21:37 25.96250 -153.25494 31049 ft 534 kts 54°
2026-05-06 21:37 26.00391 -153.18643 31048 ft 534 kts 54°
2026-05-06 21:38 26.04517 -153.11806 31048 ft 533 kts 54°
2026-05-06 21:38 26.08642 -153.04962 31049 ft 533 kts 54°
2026-05-06 21:39 26.12787 -152.98074 31047 ft 534 kts 54°
2026-05-06 21:39 26.16913 -152.91208 31051 ft 535 kts 54°
2026-05-06 21:40 26.21029 -152.84348 31055 ft 535 kts 54°
2026-05-06 21:40 26.25155 -152.77460 31053 ft 534 kts 54°
2026-05-06 21:41 26.29261 -152.70595 31054 ft 535 kts 54°
2026-05-06 21:41 26.33389 -152.63686 31055 ft 534 kts 54°
2026-05-06 21:42 26.37493 -152.56805 31056 ft 535 kts 54°
2026-05-06 21:42 26.41609 -152.49892 31057 ft 536 kts 54°
2026-05-06 21:43 26.45710 -152.42993 31052 ft 535 kts 54°
2026-05-06 21:43 26.49808 -152.36092 31051 ft 537 kts 54°
2026-05-06 21:44 26.53945 -152.29111 31041 ft 537 kts 54°
2026-05-06 21:44 26.58073 -152.22139 31046 ft 537 kts 54°
2026-05-06 21:45 26.62169 -152.15207 31045 ft 537 kts 54°
2026-05-06 21:45 26.66300 -152.08205 31039 ft 539 kts 54°
2026-05-06 21:46 26.70415 -152.01221 31037 ft 538 kts 54°
2026-05-06 21:46 26.74532 -151.94222 31035 ft 538 kts 54°
2026-05-06 21:47 26.78620 -151.87259 31037 ft 539 kts 54°
2026-05-06 21:47 26.82732 -151.80247 31035 ft 539 kts 54°
2026-05-06 21:48 26.86862 -151.73193 31037 ft 540 kts 54°
2026-05-06 21:48 26.90975 -151.66156 31040 ft 540 kts 54°
2026-05-06 21:49 26.95075 -151.59128 31039 ft 540 kts 54°
2026-05-06 21:49 26.99177 -151.52089 31042 ft 540 kts 54°
2026-05-06 21:50 27.03288 -151.45023 31044 ft 541 kts 54°
2026-05-06 21:50 27.07370 -151.37994 31046 ft 541 kts 54°
2026-05-06 21:51 27.11473 -151.30922 31039 ft 542 kts 54°
2026-05-06 21:51 27.15599 -151.23798 31038 ft 541 kts 54°
2026-05-06 21:52 27.19683 -151.16731 31040 ft 541 kts 54°
2026-05-06 21:52 27.23761 -151.09663 31042 ft 541 kts 54°
2026-05-06 21:53 27.27881 -151.02512 31037 ft 541 kts 54°
2026-05-06 21:53 27.31960 -150.95421 31038 ft 543 kts 54°
2026-05-06 21:54 27.36049 -150.88301 31039 ft 543 kts 54°
2026-05-06 21:54 27.40140 -150.81168 31041 ft 543 kts 54°
2026-05-06 21:55 27.44202 -150.74071 31043 ft 544 kts 54°
2026-05-06 21:55 27.48280 -150.66936 31042 ft 543 kts 54°
2026-05-06 21:56 27.52368 -150.59772 31041 ft 543 kts 54°
2026-05-06 21:56 27.56439 -150.52628 31044 ft 543 kts 54°
2026-05-06 21:57 27.60515 -150.45462 31042 ft 544 kts 54°
2026-05-06 21:57 27.64587 -150.38289 31043 ft 544 kts 54°
2026-05-06 21:58 27.68654 -150.31114 31033 ft 544 kts 54°
2026-05-06 21:58 27.72704 -150.23958 31033 ft 544 kts 55°
2026-05-06 21:59 27.76748 -150.16798 31034 ft 546 kts 55°
2026-05-06 21:59 27.80821 -150.09578 31032 ft 546 kts 54°
2026-05-06 22:00 27.84870 -150.02388 31032 ft 544 kts 54°
2026-05-06 22:00 27.88938 -149.95152 31033 ft 546 kts 54°
2026-05-06 22:01 27.92979 -149.87952 31030 ft 544 kts 55°
2026-05-06 22:01 27.97002 -149.80772 31036 ft 545 kts 55°
2026-05-06 22:02 28.01065 -149.73508 31037 ft 545 kts 54°
2026-05-06 22:02 28.05085 -149.66310 31034 ft 546 kts 54°
2026-05-06 22:03 28.09139 -149.59038 31037 ft 546 kts 54°
2026-05-06 22:03 28.13151 -149.51828 31042 ft 547 kts 55°
2026-05-06 22:04 28.17226 -149.44495 31042 ft 548 kts 54°
2026-05-06 22:04 28.21290 -149.37166 31043 ft 547 kts 54°
2026-05-06 22:05 28.25329 -149.29872 31035 ft 547 kts 55°
2026-05-06 22:05 28.29350 -149.22597 31035 ft 548 kts 55°
2026-05-06 22:06 28.33384 -149.15286 31037 ft 547 kts 55°
2026-05-06 22:06 28.37409 -149.07977 31036 ft 549 kts 55°
2026-05-06 22:07 28.41453 -149.00624 31038 ft 548 kts 55°
2026-05-06 22:07 28.45473 -148.93300 31040 ft 550 kts 55°
2026-05-06 22:08 28.49495 -148.85960 31038 ft 550 kts 55°
2026-05-06 22:08 28.53524 -148.78597 31082 ft 552 kts 55°
2026-05-06 22:09 28.55549 -148.74890 31267 ft 552 kts 55°
2026-05-06 22:09 28.57567 -148.71196 31543 ft 551 kts 55°
2026-05-06 22:09 28.59579 -148.67508 31816 ft 549 kts 55°
2026-05-06 22:09 28.61597 -148.63805 32071 ft 548 kts 55°
2026-05-06 22:10 28.63595 -148.60136 32309 ft 548 kts 55°
2026-05-06 22:10 28.65592 -148.56465 32521 ft 548 kts 55°
2026-05-06 22:10 28.67591 -148.52788 32749 ft 547 kts 55°
2026-05-06 22:10 28.69564 -148.49156 32985 ft 546 kts 55°
2026-05-06 22:11 28.73548 -148.41812 33042 ft 548 kts 55°
2026-05-06 22:11 28.77540 -148.34442 33047 ft 548 kts 56°
2026-05-06 22:12 28.81519 -148.27080 33039 ft 548 kts 56°
2026-05-06 22:12 28.85513 -148.19679 33037 ft 549 kts 56°
2026-05-06 22:13 28.89490 -148.12295 33046 ft 549 kts 56°
2026-05-06 22:13 28.93464 -148.04904 33045 ft 548 kts 56°
2026-05-06 22:14 28.97455 -147.97467 33047 ft 549 kts 56°
2026-05-06 22:14 29.01412 -147.90082 33053 ft 549 kts 56°
2026-05-06 22:15 29.05401 -147.82623 33049 ft 552 kts 56°
2026-05-06 22:15 29.09401 -147.75130 33055 ft 553 kts 56°
2026-05-06 22:16 29.13401 -147.67624 33060 ft 553 kts 56°
2026-05-06 22:16 29.17374 -147.60155 33062 ft 554 kts 56°
2026-05-06 22:17 29.21385 -147.52600 33063 ft 554 kts 56°
2026-05-06 22:17 29.25355 -147.45108 33062 ft 554 kts 56°
2026-05-06 22:18 29.29337 -147.37579 33064 ft 555 kts 56°
2026-05-06 22:18 29.33313 -147.30049 33053 ft 555 kts 56°
2026-05-06 22:19 29.37298 -147.22487 33055 ft 555 kts 56°
2026-05-06 22:19 29.41279 -147.14920 33053 ft 556 kts 56°
2026-05-06 22:20 29.45262 -147.07335 33058 ft 557 kts 56°
2026-05-06 22:20 29.49231 -146.99764 33062 ft 556 kts 56°
2026-05-06 22:21 29.53202 -146.92171 33068 ft 555 kts 56°
2026-05-06 22:21 29.57159 -146.84592 33059 ft 555 kts 56°
2026-05-06 22:22 29.61131 -146.76970 33059 ft 556 kts 56°
2026-05-06 22:22 29.65073 -146.69391 33066 ft 556 kts 56°
2026-05-06 22:23 29.69053 -146.61729 33067 ft 557 kts 56°
2026-05-06 22:23 29.73012 -146.54089 33066 ft 557 kts 56°
2026-05-06 22:24 29.76949 -146.46475 33065 ft 557 kts 56°
2026-05-06 22:24 29.80918 -146.38791 33067 ft 558 kts 56°
2026-05-06 22:25 29.84878 -146.31105 33049 ft 558 kts 56°
2026-05-06 22:25 29.88822 -146.23433 33055 ft 559 kts 56°
2026-05-06 22:26 29.92766 -146.15749 33061 ft 558 kts 56°
2026-05-06 22:26 29.96708 -146.08054 33065 ft 558 kts 56°
2026-05-06 22:27 30.00634 -146.00375 33070 ft 558 kts 56°
2026-05-06 22:27 30.04541 -145.92722 33067 ft 560 kts 56°
2026-05-06 22:28 30.08495 -145.84959 33081 ft 560 kts 56°
2026-05-06 22:28 30.12417 -145.77245 33072 ft 560 kts 56°
2026-05-06 22:29 30.16335 -145.69521 33083 ft 560 kts 56°
2026-05-06 22:29 30.20239 -145.61812 33089 ft 559 kts 56°
2026-05-06 22:30 30.24162 -145.54048 33092 ft 559 kts 56°
2026-05-06 22:30 30.28049 -145.46343 33101 ft 559 kts 56°
2026-05-06 22:31 30.31970 -145.38554 33093 ft 560 kts 57°
2026-05-06 22:31 30.35853 -145.30826 33078 ft 559 kts 57°
2026-05-06 22:32 30.39729 -145.23096 33081 ft 559 kts 57°
2026-05-06 22:32 30.43634 -145.15294 33079 ft 560 kts 57°
2026-05-06 22:33 30.47535 -145.07481 33089 ft 560 kts 57°
2026-05-06 22:33 30.51416 -144.99695 33087 ft 560 kts 57°
2026-05-06 22:34 30.55313 -144.91862 33093 ft 560 kts 57°
2026-05-06 22:34 30.59194 -144.84047 33088 ft 561 kts 57°
2026-05-06 22:35 30.63053 -144.76256 33097 ft 561 kts 57°
2026-05-06 22:35 30.66925 -144.68425 33103 ft 559 kts 57°
2026-05-06 22:36 30.70804 -144.60567 33103 ft 560 kts 57°
2026-05-06 22:36 30.74649 -144.52759 33106 ft 559 kts 57°
2026-05-06 22:37 30.78494 -144.44936 33105 ft 560 kts 57°
2026-05-06 22:37 30.82335 -144.37105 33106 ft 560 kts 57°
2026-05-06 22:38 30.86166 -144.29279 33098 ft 561 kts 58°
2026-05-06 22:38 30.90008 -144.21414 33097 ft 560 kts 58°
2026-05-06 22:39 30.93835 -144.13565 33103 ft 561 kts 58°
2026-05-06 22:39 30.97660 -144.05704 33108 ft 560 kts 58°
2026-05-06 22:40 31.01476 -143.97844 33111 ft 560 kts 58°
2026-05-06 22:40 31.05303 -143.89944 33111 ft 560 kts 58°
2026-05-06 22:41 31.11011 -143.78134 33123 ft 560 kts 58°
2026-05-06 22:42 31.14826 -143.70221 33115 ft 561 kts 58°
2026-05-06 22:42 31.18615 -143.62343 33121 ft 559 kts 58°
2026-05-06 22:43 31.22406 -143.54448 33122 ft 559 kts 58°
2026-05-06 22:43 31.26187 -143.46561 33118 ft 559 kts 58°
2026-05-06 22:44 31.29948 -143.38690 33126 ft 559 kts 58°
2026-05-06 22:44 31.33716 -143.30792 33110 ft 559 kts 59°
2026-05-06 22:45 31.37471 -143.22905 33116 ft 559 kts 59°
2026-05-06 22:45 31.41247 -143.14954 33122 ft 559 kts 59°
2026-05-06 22:46 31.45003 -143.07027 33119 ft 559 kts 59°
2026-05-06 22:46 31.48745 -142.99115 33125 ft 558 kts 59°
2026-05-06 22:47 31.52489 -142.91188 33120 ft 559 kts 59°
2026-05-06 22:47 31.56216 -142.83278 33132 ft 556 kts 59°
2026-05-06 22:48 31.59948 -142.75339 33128 ft 557 kts 59°
2026-05-06 22:48 31.63656 -142.67438 33134 ft 557 kts 59°
2026-05-06 22:49 31.67361 -142.59523 33135 ft 555 kts 59°
2026-05-06 22:49 31.71085 -142.51552 33146 ft 555 kts 59°
2026-05-06 22:50 31.74729 -142.43735 33137 ft 555 kts 59°
2026-05-06 22:50 31.78428 -142.35783 33148 ft 555 kts 59°
2026-05-06 22:51 31.82102 -142.27867 33135 ft 554 kts 59°
2026-05-06 22:51 31.85771 -142.19946 33145 ft 554 kts 59°
2026-05-06 22:52 31.89427 -142.12036 33151 ft 553 kts 59°
2026-05-06 22:52 31.93082 -142.04111 33141 ft 553 kts 59°
2026-05-06 22:53 31.96748 -141.96147 33154 ft 552 kts 59°
2026-05-06 22:53 32.00382 -141.88228 33157 ft 552 kts 60°
2026-05-06 22:54 32.04022 -141.80273 33160 ft 553 kts 59°
2026-05-06 22:54 32.07656 -141.72317 33161 ft 552 kts 59°
2026-05-06 22:55 32.11281 -141.64357 33164 ft 552 kts 60°
2026-05-06 22:55 32.14894 -141.56403 33163 ft 552 kts 59°
2026-05-06 22:56 32.18507 -141.48438 33166 ft 552 kts 59°
2026-05-06 22:56 32.22113 -141.40468 33167 ft 551 kts 60°
2026-05-06 22:57 32.25695 -141.32539 33161 ft 549 kts 60°
2026-05-06 22:57 32.29259 -141.24629 33158 ft 550 kts 60°
2026-05-06 22:58 32.32841 -141.16661 33167 ft 551 kts 60°
2026-05-06 22:58 32.36428 -141.08666 33171 ft 551 kts 60°
2026-05-06 22:59 32.39994 -141.00700 33170 ft 550 kts 60°
2026-05-06 22:59 32.43565 -140.92702 33175 ft 549 kts 60°
2026-05-06 23:00 32.47096 -140.84781 33176 ft 549 kts 60°
2026-05-06 23:00 32.50660 -140.76767 33181 ft 549 kts 60°
2026-05-06 23:01 32.54212 -140.68761 33183 ft 551 kts 60°
2026-05-06 23:01 32.57767 -140.60730 33185 ft 550 kts 60°
2026-05-06 23:02 32.61298 -140.52736 33186 ft 549 kts 60°
2026-05-06 23:02 32.64825 -140.44736 33187 ft 549 kts 61°
2026-05-06 23:03 32.68301 -140.36832 33193 ft 550 kts 60°
2026-05-06 23:03 32.71830 -140.28790 33184 ft 549 kts 61°
2026-05-06 23:04 32.75357 -140.20734 33185 ft 550 kts 62°
2026-05-06 23:04 32.78857 -140.12717 33187 ft 550 kts 62°
2026-05-06 23:05 32.82349 -140.04709 33190 ft 548 kts 62°
2026-05-06 23:05 32.85843 -139.96675 33195 ft 549 kts 62°
2026-05-06 23:06 32.89335 -139.88626 33196 ft 548 kts 62°
2026-05-06 23:06 32.92823 -139.80574 33200 ft 547 kts 62°
2026-05-06 23:07 32.96298 -139.72527 33201 ft 548 kts 62°
2026-05-06 23:07 32.99766 -139.64479 33205 ft 547 kts 62°
2026-05-06 23:08 33.03214 -139.56459 33209 ft 547 kts 62°
2026-05-06 23:08 33.06663 -139.48418 33209 ft 547 kts 62°
2026-05-06 23:09 33.10123 -139.40335 33209 ft 547 kts 62°
2026-05-06 23:09 33.13557 -139.32294 33205 ft 545 kts 62°
2026-05-06 23:10 33.16975 -139.24271 33207 ft 546 kts 62°
2026-05-06 23:10 33.20409 -139.16194 33208 ft 545 kts 62°
2026-05-06 23:11 33.23807 -139.08180 33211 ft 543 kts 62°
2026-05-06 23:11 33.27201 -139.00162 33214 ft 544 kts 62°
2026-05-06 23:12 33.30620 -138.92062 33215 ft 544 kts 62°